SEGAN ESGG-ZZZZ

Flight info

Callsign SEGAN
Flight time N/A
Altitude
Route
Aircraft P28A

Departure

Time 2026-05-05 19:40
Airport Göteborg Landvetter Airport (ESGG)

Arrival

Time N/A
Airport ZZZZ
Time Latitude Longitude Altitude Speed Heading
2026-05-05 19:30 57.66828 12.29111 509 ft 0 kts 251°
2026-05-05 19:33 57.66828 12.29108 509 ft 1 kts 238°
2026-05-05 19:33 57.66806 12.29136 509 ft 7 kts 161°
2026-05-05 19:33 57.66788 12.29048 509 ft 12 kts 296°
2026-05-05 19:33 57.66825 12.28901 508 ft 13 kts 288°
2026-05-05 19:34 57.66778 12.28747 506 ft 14 kts 236°
2026-05-05 19:34 57.66768 12.28720 506 ft 0 kts 237°
2026-05-05 19:36 57.66749 12.28666 506 ft 12 kts 236°
2026-05-05 19:36 57.66676 12.28465 506 ft 22 kts 236°
2026-05-05 19:36 57.66651 12.28315 506 ft 0 kts 204°
2026-05-05 19:39 57.66650 12.28314 506 ft 2 kts 204°
2026-05-05 19:39 57.66480 12.28158 505 ft 55 kts 205°
2026-05-05 19:40 57.66027 12.27743 580 ft 79 kts 210°
2026-05-05 19:40 57.65538 12.27273 790 ft 79 kts 208°
2026-05-05 19:40 57.65032 12.26837 1007 ft 80 kts 206°
2026-05-05 19:40 57.64701 12.26165 1306 ft 72 kts 273°
2026-05-05 19:41 57.65017 12.25428 1468 ft 84 kts 345°
2026-05-05 19:41 57.65645 12.25494 1553 ft 98 kts 14°
2026-05-05 19:41 57.66342 12.25942 1580 ft 112 kts 25°
2026-05-05 19:41 57.67002 12.26607 1546 ft 105 kts 36°
2026-05-05 19:42 57.67576 12.27366 1548 ft 99 kts 32°
2026-05-05 19:42 57.68189 12.27971 1511 ft 99 kts 24°
2026-05-05 19:42 57.68797 12.28493 1457 ft 92 kts 22°
2026-05-05 19:42 57.69265 12.29171 1394 ft 88 kts 65°
2026-05-05 19:43 57.69119 12.30253 1186 ft 92 kts 132°
2026-05-05 19:43 57.68646 12.30297 837 ft 79 kts 227°
2026-05-05 19:43 57.68208 12.29732 691 ft 75 kts 206°
2026-05-05 19:43 57.67744 12.29326 579 ft 73 kts 213°
2026-05-05 19:44 57.67301 12.28915 510 ft 65 kts 210°
2026-05-05 19:44 57.66893 12.28542 531 ft 77 kts 209°
2026-05-05 19:44 57.66395 12.28108 712 ft 79 kts 210°
2026-05-05 19:44 57.65905 12.27664 951 ft 78 kts 207°
2026-05-05 19:45 57.65507 12.26988 1177 ft 82 kts 258°
2026-05-05 19:45 57.65722 12.26098 1457 ft 75 kts 316°
2026-05-05 19:45 57.66139 12.25371 1541 ft 87 kts 317°
2026-05-05 19:45 57.66585 12.24581 1603 ft 92 kts 315°
2026-05-05 19:46 57.67184 12.24193 1587 ft 102 kts 10°
2026-05-05 19:46 57.67833 12.24741 1584 ft 103 kts 25°
2026-05-05 19:46 57.68451 12.25420 1560 ft 107 kts 36°
2026-05-05 19:46 57.68931 12.26496 1504 ft 109 kts 56°
2026-05-05 19:47 57.68990 12.27787 1311 ft 101 kts 109°
2026-05-05 19:47 57.68710 12.28946 1056 ft 89 kts 118°
2026-05-05 19:47 57.68305 12.29673 768 ft 82 kts 172°
2026-05-05 19:47 57.67790 12.29376 589 ft 77 kts 211°
2026-05-05 19:48 57.67339 12.28946 514 ft 67 kts 209°
2026-05-05 19:48 57.67003 12.28636 507 ft 42 kts 206°
2026-05-05 19:48 57.66786 12.28439 506 ft 30 kts 207°
2026-05-05 19:48 57.66650 12.28318 506 ft 11 kts 203°
2026-05-05 19:49 57.66621 12.28338 505 ft 8 kts 46°
2026-05-05 19:49 57.66652 12.28406 506 ft 13 kts 53°
2026-05-05 19:49 57.66755 12.28688 506 ft 23 kts 56°
2026-05-05 19:49 57.66828 12.28863 507 ft 13 kts 83°
2026-05-05 19:50 57.66796 12.29017 509 ft 14 kts 116°
2026-05-05 19:50 57.66789 12.29161 509 ft 11 kts 40°
2026-05-05 19:50 57.66834 12.29144 509 ft 7 kts 247°
2026-05-05 19:50 57.66829 12.29118 509 ft 0 kts 250°